Date String (YYYY-MM-DD hh:mm:ss) UTC,Instrument flags,absolute air pressure of the measurement (hPa),sample flow rate (lpm),inlet stack bypass flow (lpm),air temperature of the measurement (°C),ambient temperature measured by the external sensor (°C),aerosol sample conditioner tube jacket temperature (°C),OPC LED temperature (°C),internal box temperature (°C),relative humidity of the measurement (%),span deviation,mass concentration of particles derived from Lorenz-Mie calculation of OPC scattering (μg/m³),mass concentration of particles derived from Lorenz-Mie calculation of OPC scattering (μg/m³),mass concentration of particles derived from Lorenz-Mie calculation of OPC scattering (μg/m³)
DateTimeUTC,F1_M11,P_M11,Q1_M11,Q2_M11,T1_M11,T2_M11,T3_M11,T4_M11,T5_M11,U1_M11,ZSPAN_M11,X0_M11,X2_M11,X1_M11
2023-12-02 18:00:00,SystemResetWarning,0823.3,5.00,000.00,018.7,017.6,000.0,027.2,020.0,10.9,0000.0,0001.98,0000.69,0000.45
2023-12-02 18:01:00,SystemResetWarning,0823.3,5.00,000.00,018.7,017.6,000.0,027.2,020.0,10.5,0000.0,0001.97,0000.67,0000.43
2023-12-02 18:02:00,SystemResetWarning,0823.4,5.00,000.00,018.7,017.6,000.0,027.2,020.0,10.5,0000.0,0001.99,0000.65,0000.41
2023-12-02 18:03:00,SystemResetWarning,0823.4,5.00,000.00,018.7,017.6,000.0,027.2,020.0,10.8,0000.0,0001.78,0000.62,0000.39
2023-12-02 18:04:00,SystemResetWarning,0823.4,4.99,000.00,018.7,017.6,000.0,027.2,020.0,10.5,0000.0,0001.91,0000.62,0000.37
2023-12-02 18:05:00,SystemResetWarning,0823.3,4.99,000.00,018.7,017.6,000.0,027.2,020.0,10.1,0000.0,0002.00,0000.62,0000.35
2023-12-02 18:06:00,SystemResetWarning,0823.4,5.00,000.00,018.7,017.6,000.0,027.2,020.0,10.1,0000.0,0001.98,0000.61,0000.34
2023-12-02 18:07:00,SystemResetWarning,0823.4,5.01,000.00,018.7,017.6,000.0,027.2,020.0,10.0,0000.0,0001.55,0000.58,0000.32
2023-12-02 18:08:00,SystemResetWarning,0823.3,5.01,000.00,018.7,017.6,000.0,027.2,020.0,10.0,0000.0,0001.30,0000.54,0000.32
2023-12-02 18:09:00,SystemResetWarning,0823.3,5.00,000.00,018.7,017.6,000.0,027.2,020.0,9.7,0000.0,0001.34,0000.53,0000.33
2023-12-02 18:10:00,SystemResetWarning,0823.3,5.00,000.00,018.7,017.6,000.0,027.2,020.0,10.0,0000.0,0001.34,0000.53,0000.33
2023-12-02 18:11:00,SystemResetWarning,0823.3,5.00,000.00,018.7,017.6,000.0,027.2,020.0,9.7,0000.0,0001.43,0000.57,0000.34
2023-12-02 18:12:00,SystemResetWarning,0823.3,4.99,000.00,018.7,017.6,000.0,027.2,020.0,9.7,0000.0,0001.45,0000.58,0000.34
2023-12-02 18:13:00,SystemResetWarning,0823.3,5.00,000.00,018.7,017.6,000.0,027.2,020.0,9.8,0000.0,0001.37,0000.57,0000.36
2023-12-02 18:14:00,SystemResetWarning,0823.2,5.00,000.00,018.7,017.6,000.0,027.2,020.0,9.6,0000.0,0001.30,0000.55,0000.35
2023-12-02 18:15:00,SystemResetWarning,0823.3,5.00,000.00,018.7,017.6,000.0,027.2,020.0,9.6,0000.0,0001.10,0000.53,0000.36
2023-12-02 18:16:00,SystemResetWarning,0823.3,5.00,000.00,018.7,017.6,000.0,027.2,020.0,9.5,0000.0,0000.91,0000.50,0000.36
2023-12-02 18:17:00,SystemResetWarning,0823.3,5.00,000.00,018.7,017.6,000.0,027.2,020.0,9.9,0000.0,0000.91,0000.50,0000.37
2023-12-02 18:18:00,SystemResetWarning,0823.3,5.00,000.00,018.7,017.7,000.0,027.2,020.0,10.2,0000.0,0000.93,0000.51,0000.37
2023-12-02 18:19:00,SystemResetWarning,0823.4,5.00,000.00,018.7,017.7,000.0,027.2,020.0,10.2,0000.0,0000.90,0000.50,0000.37
2023-12-02 18:20:00,SystemResetWarning,0823.4,5.00,000.00,018.7,017.7,000.0,027.2,020.0,10.5,0000.0,0000.76,0000.48,0000.36
2023-12-02 18:21:00,SystemResetWarning,0823.3,5.00,000.00,018.7,017.7,000.0,027.2,020.0,10.6,0000.0,0000.75,0000.47,0000.36
2023-12-02 18:22:00,SystemResetWarning,0823.2,5.00,000.00,018.7,017.8,000.0,027.2,020.0,10.6,0000.0,0000.68,0000.45,0000.36
2023-12-02 18:23:00,SystemResetWarning,0823.1,5.01,000.00,018.7,017.8,000.0,027.2,020.0,10.3,0000.0,0000.66,0000.44,0000.36
2023-12-02 18:24:00,SystemResetWarning,0823.2,5.00,000.00,018.7,017.9,000.0,027.2,020.0,10.3,0000.0,0000.61,0000.42,0000.35
2023-12-02 18:25:00,SystemResetWarning,0823.3,5.00,000.00,018.7,017.9,000.0,027.1,020.0,10.7,0000.0,0000.59,0000.41,0000.35
2023-12-02 18:26:00,SystemResetWarning,0823.3,5.00,000.00,018.7,017.9,000.0,027.2,020.0,10.5,0000.0,0000.56,0000.40,0000.34
2023-12-02 18:27:00,SystemResetWarning,0823.2,5.00,000.00,018.7,017.9,000.0,027.2,020.0,10.5,0000.0,0000.56,0000.39,0000.34
2023-12-02 18:28:00,SystemResetWarning,0823.2,5.00,000.00,018.7,017.9,000.0,027.2,020.0,10.5,0000.0,0000.59,0000.40,0000.34
2023-12-02 18:29:00,SystemResetWarning,0823.0,5.00,000.00,018.7,017.9,000.0,027.1,020.0,10.5,0000.0,0002.00,0000.40,0000.34
2023-12-02 18:30:00,SystemResetWarning,0823.0,4.99,000.00,018.7,017.9,000.0,027.2,020.0,10.7,0000.0,0002.32,0000.40,0000.35
2023-12-02 18:31:00,SystemResetWarning,0823.0,5.00,000.00,018.7,017.9,000.0,027.2,020.0,10.6,0000.0,0002.33,0000.41,0000.35
2023-12-02 18:32:00,SystemResetWarning,0822.9,5.00,000.00,018.7,017.9,000.0,027.2,020.0,10.7,0000.0,0002.38,0000.44,0000.36
2023-12-02 18:33:00,SystemResetWarning,0823.0,5.01,000.00,018.7,017.9,000.0,027.2,020.0,10.7,0000.0,0002.40,0000.45,0000.36
2023-12-02 18:34:00,SystemResetWarning,0823.0,5.01,000.00,018.7,017.8,000.0,027.2,020.0,10.4,0000.0,0002.39,0000.44,0000.35
2023-12-02 18:35:00,SystemResetWarning,0823.0,5.01,000.00,018.7,017.8,000.0,027.2,020.0,10.6,0000.0,0002.39,0000.45,0000.36
2023-12-02 18:36:00,SystemResetWarning,0823.0,5.00,000.00,018.7,017.8,000.0,027.2,020.0,10.5,0000.0,0002.46,0000.46,0000.36
2023-12-02 18:37:00,SystemResetWarning,0823.0,5.00,000.00,018.7,017.8,000.0,027.2,020.0,10.5,0000.0,0002.54,0000.48,0000.36
2023-12-02 18:38:00,SystemResetWarning,0823.0,5.01,000.00,018.7,017.8,000.0,027.2,020.0,10.6,0000.0,0003.25,0000.49,0000.36
2023-12-02 18:39:00,SystemResetWarning,0823.0,5.00,000.00,018.7,017.8,000.0,027.2,020.0,10.9,0000.0,0003.31,0000.49,0000.35
2023-12-02 18:40:00,SystemResetWarning,0823.0,5.00,000.00,018.7,017.8,000.0,027.2,020.0,10.8,0000.0,0001.81,0000.50,0000.35
2023-12-02 18:41:00,SystemResetWarning,0822.9,5.00,000.00,018.7,017.8,000.0,027.2,020.0,10.6,0000.0,0001.61,0000.49,0000.35
2023-12-02 18:42:00,SystemResetWarning,0823.0,4.99,000.00,018.7,017.8,000.0,027.2,020.0,10.8,0000.0,0001.59,0000.48,0000.34
2023-12-02 18:43:00,SystemResetWarning,0823.0,5.00,000.00,018.7,017.8,000.0,027.2,020.0,10.5,0000.0,0001.55,0000.46,0000.33
2023-12-02 18:44:00,SystemResetWarning,0823.0,5.00,000.00,018.7,017.8,000.0,027.2,020.0,10.4,0000.0,0001.54,0000.45,0000.32
2023-12-02 18:45:00,SystemResetWarning,0823.1,5.00,000.00,018.7,017.8,000.0,027.2,020.0,10.3,0000.0,0001.78,0000.46,0000.32
2023-12-02 18:46:00,SystemResetWarning,0822.9,5.01,000.00,018.7,017.7,000.0,027.2,020.0,9.8,0000.0,0003.06,0000.49,0000.33
2023-12-02 18:47:00,SystemResetWarning,0822.9,5.01,000.00,018.7,017.8,000.0,027.2,020.0,9.8,0000.0,0003.01,0000.50,0000.33
2023-12-02 18:48:00,SystemResetWarning,0823.1,5.00,000.00,018.7,017.8,000.0,027.2,020.0,10.3,0000.0,0003.03,0000.52,0000.33
2023-12-02 18:49:00,SystemResetWarning,0823.1,4.99,000.00,018.7,017.8,000.0,027.2,020.0,10.3,0000.0,0002.43,0000.53,0000.34
2023-12-02 18:50:00,SystemResetWarning,0822.7,4.99,000.00,018.7,017.8,000.0,027.2,020.0,10.2,0000.0,0002.91,0000.55,0000.35
2023-12-02 18:51:00,SystemResetWarning,0822.8,5.00,000.00,018.7,017.8,000.0,027.2,020.0,9.8,0000.0,0003.03,0000.55,0000.36
2023-12-02 18:52:00,SystemResetWarning,0822.9,5.01,000.00,018.7,017.8,000.0,027.2,020.0,9.6,0000.0,0003.04,0000.56,0000.37
2023-12-02 18:53:00,SystemResetWarning,0822.7,5.01,000.00,018.7,017.8,000.0,027.2,020.0,9.6,0000.0,0003.09,0000.57,0000.37
2023-12-02 18:54:00,SystemResetWarning,0822.6,4.99,000.00,018.7,017.7,000.0,027.2,020.0,9.7,0000.0,0003.15,0000.57,0000.37
2023-12-02 18:55:00,SystemResetWarning,0822.6,4.99,000.00,018.7,017.7,000.0,027.2,020.0,9.6,0000.0,0003.17,0000.57,0000.37
2023-12-02 18:56:00,SystemResetWarning,0822.6,5.00,000.00,018.7,017.7,000.0,027.2,020.0,9.5,0000.0,0003.15,0000.57,0000.37
2023-12-02 18:57:00,SystemResetWarning,0822.7,5.01,000.00,018.7,017.7,000.0,027.2,020.0,9.8,0000.0,0001.71,0000.54,0000.37
2023-12-02 18:58:00,SystemResetWarning,0822.8,5.01,000.00,018.7,017.8,000.0,027.2,020.0,9.0,0000.0,0001.91,0000.54,0000.37
2023-12-02 18:59:00,SystemResetWarning,0822.8,5.00,000.00,018.7,017.8,000.0,027.2,020.0,9.0,0000.0,0002.01,0000.53,0000.37
